Regional Weather Roundup
Issued by NWS Binghamton, NY

Home | Current Version | Previous Version | Text Only | Print | Product List | Glossary On
Versions: 1 2 3 4 5 6 7 8 9 10 11 12 13 14 15 16 17 18 19 20 21 22 23 24 25 26 27 28 29 30 31 32 33 34 35 36 37 38 39 40 41 42 43 44 45 46 47 48 49 50
000
ASUS41 KBGM 211410
RWRBGM

REGIONAL WEATHER ROUNDUP
NATIONAL WEATHER SERVICE BINGHAMTON NY
1000 AM EDT SUN APR 21 2019

Note: "fair" indicates few or no clouds below 12,000 feet with no
significant weather and/or obstructions to visibility.

* = Station(s) that does not report precipitation, such as rain,
snow, etc, also no thunder or fog.

NYZ009-015>018-022>025-036-037-044>046-055>057-062-211500
...Central New York...

CITY           SKY/WX    TMP DP  RH WIND       PRES   REMARKS
Binghamton     CLOUDY    54  45  71 W8        29.94R
Cortland       CLOUDY    52  46  82 SW8       29.97R
Dansville      CLOUDY    50  46  86 N3        29.98R
Elmira         CLOUDY    49  45  86 E8        29.96R
Seneca Falls   CLOUDY    48  46  93 N3        30.00R
Ithaca         FOG       46  46 100 CALM      29.98R VSB 1/4
Hamilton       CLOUDY    57  46  67 CALM      29.00S
Hornell          N/A     48  46  93 CALM      30.00S
Monticello     PTSUNNY   54  50  86 E6        29.99R
Norwich        CLOUDY    63  45  51 SW7       29.00S
Oneonta        SUNNY     57  48  72 SW5       29.00S
Penn Yan       CLOUDY    47  46  97 CALM      29.98R FOG
Rome           CLOUDY    50  46  86 CALM      29.98R
Sidney         PTSUNNY   61  48  63 W5        29.00S
Syracuse       CLOUDY    49  44  83 NW7       29.99R
$$

PAZ038>040-043-044-047-048-072-211500
...Northeast Pennsylvania...

CITY           SKY/WX    TMP DP  RH WIND       PRES   REMARKS
Hazleton       CLOUDY    55  41  58 CALM      29.99R
Scranton       CLOUDY    59  49  69 CALM      29.95R
$$
&&
KEY
WCI = Wind Chill Index
VSB = Visibility
HX  = Heat Index
$$



USA.gov is the U.S. government's official web portal to all federal, state and local government web resources and services.